Location: Unspecified
(0.0000°N, 0.0000°E)
Time: 00:40:06
(UTC+00:00)

A-11 Canister half - Pass Details

Date: 10 February 2023
Orbit: 1526 x 1682 km, 47.3° (Epoch: 29 March)

Event Time Altitude Azimuth Distance (km) Brightness Sun altitude
Rises 02:05:00 0° 240° (WSW) 4,791 - -59.0°
Reaches altitude 10° 02:08:30 10° 249° (WSW) 3,781 - -58.2°
Maximum altitude 02:16:50 34° 310° (NW) 2,331 - -56.4°
Drops below altitude 10° 02:25:02 10° 12° (NNE) 3,691 - -54.6°
Sets 02:28:27 0° 22° (NNE) 4,664 - -53.8°
